Mosinee, WI

3:35 AM CDT on March 29, 2017 (GMT -0500)
Central Wisconsin

Weather History for KCWA - July, 2013

Change the Weather History Date:

Thursday, July 11, 2013

  Actual Average Record
Temperature  
Mean Temperature 68 °F -  
Max Temperature 80 °F 76 °F 87 °F (2005)
Min Temperature 55 °F 55 °F 48 °F (1996)
Cooling Degree Days 2    
Growing Degree Days 18 (Base 50)    
Moisture  
Dew Point 56 °F    
Average Humidity 79    
Maximum Humidity 100    
Minimum Humidity 37    
Precipitation  
Precipitation 0.00 in - - ()
Sea Level Pressure  
Sea Level Pressure 30.10 in    
Wind  
Wind Speed 1 mph (South)    
Max Wind Speed 8 mph    
Max Gust Speed -    
Visibility 9 miles    
Events      
Averages and records for this station are not official NWS values.
T = Trace of Precipitation, MM = Missing Value Source: NWS Daily Summary

Daily Weather History Graph

Daily Weather History Graph

Search for Another Location

Airport or City:

Trip Planner

Search our weather history database for the weather conditions in past years. The results will help you decide how hot, cold, wet, or windy it might be!

Date:

Astronomy

Jul. 11, 2013 Rise Set
Actual Time 5:23 AM CDT 8:44 PM CDT
Civil Twilight 4:47 AM CDT 9:20 PM CDT
Nautical Twilight 4:00 AM CDT 10:07 PM CDT
Astronomical Twilight 3:01 AM CDT 11:05 PM CDT
Moon 8:52 AM CDT (7/11) 10:12 PM CDT (7/11)
Length of Visible Light 16h 32m
Length of Day
15h 20m
Waxing Crescent, 11% of the Moon is Illuminated
Jul 11
Waxing Crescent
Jul 15
First Quarter
Jul 22
Full
Jul 29
Last Quarter
Aug 6
New

Hourly Weather History & Observations

Time (CDT) Temp. Heat Index Dew Point Humidity Pressure Visibility Wind Dir Wind Speed Gust Speed Precip Events Conditions
12:15 AM 59.0 °F - 57.2 °F 94% 30.06 in 7.0 mi Calm Calm - N/A   Clear
12:35 AM 55.4 °F - 53.6 °F 94% 30.06 in 7.0 mi Calm Calm - N/A   Clear
12:55 AM 55.4 °F - 55.4 °F 100% 30.06 in 7.0 mi Calm Calm - N/A   Clear
1:15 AM 55.4 °F - 55.4 °F 100% 30.07 in 7.0 mi Calm Calm - N/A   Clear
1:35 AM 55.4 °F - 55.4 °F 100% 30.07 in 7.0 mi Calm Calm - N/A   Clear
1:55 AM 55.4 °F - 55.4 °F 100% 30.07 in 7.0 mi Calm Calm - N/A   Clear
2:15 AM 57.2 °F - 57.2 °F 100% 30.07 in 7.0 mi Calm Calm - N/A   Clear
2:35 AM 59.0 °F - 55.4 °F 88% 30.09 in 10.0 mi Calm Calm - N/A   Clear
2:55 AM 57.2 °F - 55.4 °F 94% 30.09 in 10.0 mi Calm Calm - N/A   Clear
3:15 AM 57.2 °F - 57.2 °F 100% 30.09 in 7.0 mi Calm Calm - N/A   Clear
3:35 AM 59.0 °F - 59.0 °F 100% 30.09 in 7.0 mi West 3.5 mph - N/A   Clear
3:55 AM 57.2 °F - 57.2 °F 100% 30.09 in 7.0 mi Calm Calm - N/A   Scattered Clouds
4:15 AM 55.4 °F - 55.4 °F 100% 30.09 in 7.0 mi Calm Calm - N/A   Scattered Clouds
4:35 AM 57.2 °F - 57.2 °F 100% 30.10 in 7.0 mi Calm Calm - N/A   Clear
4:55 AM 59.0 °F - 59.0 °F 100% 30.11 in 10.0 mi Calm Calm - N/A   Clear
5:15 AM 59.0 °F - 57.2 °F 94% 30.11 in 10.0 mi Calm Calm - N/A   Clear
5:35 AM 57.2 °F - 57.2 °F 100% 30.11 in 7.0 mi Calm Calm - N/A   Clear
5:45 AM 57.2 °F - 57.2 °F 100% 30.11 in 10.0 mi Calm Calm - N/A   Clear
6:00 AM 80.6 °F 85.4 °F 73.4 °F 79% 30.02 in 10.0 mi SW 5.8 mph - N/A   Mostly Cloudy
6:50 AM 60.8 °F - 59.0 °F 94% 30.13 in 10.0 mi Calm Calm - N/A   Clear
7:45 AM 66.2 °F - 59.0 °F 78% 30.14 in 10.0 mi Calm Calm - N/A   Clear
8:55 AM 69.8 °F - 59.0 °F 68% 30.14 in 10.0 mi Calm Calm - N/A   Clear
10:45 AM 73.4 °F - 53.6 °F 50% 30.15 in 10.0 mi Calm Calm - N/A   Scattered Clouds
11:52 AM 75.2 °F - 53.6 °F 47% 30.14 in 10.0 mi Calm Calm - N/A   Scattered Clouds
12:45 PM 77.0 °F - 51.8 °F 41% 30.14 in 10.0 mi Variable 3.5 mph - N/A   Scattered Clouds
1:45 PM 77.0 °F - 53.6 °F 44% 30.14 in 10.0 mi Calm Calm - N/A   Scattered Clouds
2:50 PM 80.6 °F - 51.8 °F 37% 30.12 in 10.0 mi SSW 4.6 mph - N/A   Scattered Clouds
3:45 PM 78.8 °F - 51.8 °F 39% 30.11 in 10.0 mi SSW 5.8 mph - N/A   Partly Cloudy
4:45 PM 78.8 °F - 53.6 °F 42% 30.10 in 10.0 mi SW 8.1 mph - N/A   Scattered Clouds
5:45 PM 78.8 °F - 53.6 °F 42% 30.10 in 10.0 mi South 5.8 mph - N/A   Partly Cloudy
6:45 PM 77.0 °F - 53.6 °F 44% 30.10 in 10.0 mi SW 3.5 mph - N/A   Clear
7:45 PM 73.4 °F - 59.0 °F 61% 30.09 in 10.0 mi SSE 4.6 mph - N/A   Clear
8:45 PM 69.8 °F - 57.2 °F 64% 30.09 in 10.0 mi SE 4.6 mph - N/A   Clear
9:45 PM 66.2 °F - 59.0 °F 78% 30.10 in 10.0 mi SE 8.1 mph - N/A   Clear
10:15 PM 64.4 °F - 59.0 °F 83% 30.10 in 10.0 mi SE 3.5 mph - N/A   Clear
10:35 PM 62.6 °F - 57.2 °F 82% 30.11 in 10.0 mi SE 5.8 mph - N/A   Clear
10:55 PM 62.6 °F - 57.2 °F 82% 30.10 in 7.0 mi SSE 5.8 mph - N/A   Clear
11:15 PM 62.6 °F - 55.4 °F 77% 30.10 in 7.0 mi SE 4.6 mph - N/A   Clear
11:35 PM 62.6 °F - 55.4 °F 77% 30.11 in 7.0 mi SE 4.6 mph - N/A   Clear
11:55 PM 62.6 °F - 55.4 °F 77% 30.11 in 7.0 mi SE 4.6 mph - N/A   Clear